Regional Weather Roundup
Issued by NWS

Home | Current Version | Previous Version | Text Only | Print | Product List | Glossary On
Versions: 1 2 3 4 5 6 7 8 9 10 11 12 13 14 15 16 17 18 19 20 21 22 23 24 25 26 27
000
ASUS44 KBMX 200010
RWRAL

ALABAMA REGIONAL WEATHER ROUNDUP
NATIONAL WEATHER SERVICE BIRMINGHAM AL
700 PM CDT SAT APR 19 2014

NOTE: "FAIR" INDICATES FEW OR NO CLOUDS BELOW 12,000 FEET
WITH NO SIGNIFICANT WEATHER AND/OR OBSTRUCTIONS TO VISIBILITY.

THE REMARK "TC" DENOTES TEMPERATURE IN DEGREES CELSIUS.

ALZ001>011-014-016>018-020-200100-
NORTH ALABAMA

CITY           SKY/WX    TMP DP  RH WIND       PRES   REMARKS
MUSCLE SHOALS  CLEAR     74  38  27 E3        30.12S
6HR MIN TEMP:  74; 6HR MAX TEMP:  78;

HUNTSVILLE     PTCLDY    70  41  34 SE7       30.12R
6HR MIN TEMP:  70; 6HR MAX TEMP:  78;

DECATUR        CLEAR     73  40  30 NE6       30.12S
6HR MIN TEMP:  73; 6HR MAX TEMP:  78;

HALEYVILLE     FAIR      70  40  33 N5        30.15R
6HR MIN TEMP:  70; 6HR MAX TEMP:  77;

GADSDEN        NOT AVBL
$$

ALZ012-013-022-023-030>036-040>044-200100-
WEST CENTRAL ALABAMA

CITY           SKY/WX    TMP DP  RH WIND       PRES   REMARKS
TUSCALOOSA     CLEAR     74  43  32 NE7       30.09R
6HR MIN TEMP:  74; 6HR MAX TEMP:  80;

$$

ALZ015-024>027-033>036-040>044-200100-
CENTRAL ALABAMA

CITY           SKY/WX    TMP DP  RH WIND       PRES   REMARKS
BIRMINGHAM     PTCLDY    69  40  34 NE16G29   30.14R
6HR MIN TEMP:  69; 6HR MAX TEMP:  77;

MONTGOMERY     CLOUDY    70  54  56 NE6       30.08R
6HR MIN TEMP:  70; 6HR MAX TEMP:  75;

SHELBY CO ARPT CLEAR     72  43  35 VRB3      30.10R
6HR MIN TEMP:  70; 6HR MAX TEMP:  76;

MAXWELL AFB    CLOUDY    74  60  63 NE3       30.08R
6HR MIN TEMP:  72; 6HR MAX TEMP:  78; 6HR PCP: TRACE;

GREENVILLE     CLOUDY    68  55  63 NE5       30.07R
6HR MIN TEMP:  68; 6HR MAX TEMP:  73;

$$

ALZ019-021-028-029-037-038-045>048-200100-
EAST CENTRAL ALABAMA

CITY           SKY/WX    TMP DP  RH WIND       PRES   REMARKS
ANNISTON       CLOUDY    67  45  45 N12       30.13R
6HR MIN TEMP:  67; 6HR MAX TEMP:  73;

ALEXANDER CITY CLOUDY    71  54  56 E5        30.11S
6HR MIN TEMP:  71; 6HR MAX TEMP:  73;

AUBURN         MOCLDY    59  54  82 NE14      30.13R
6HR MIN TEMP:  59; 6HR MAX TEMP:  63;

$$

ALZ051>064-200100-
SOUTHWEST ALABAMA

CITY           SKY/WX    TMP DP  RH WIND       PRES   REMARKS
MOBILE         CLEAR     74  49  41 N9        30.07R
6HR MIN TEMP:  74; 6HR MAX TEMP:  79;

BROOKLEY FIELD CLEAR     74  49  41 N10       30.06R
6HR MIN TEMP:  74; 6HR MAX TEMP:  80;

EVERGREEN      MOCLDY    72  53  51 N7        30.07R
6HR MIN TEMP:  72; 6HR MAX TEMP:  79;

$$

ALZ049-050-065>069-200100-
SOUTHEAST ALABAMA

CITY           SKY/WX    TMP DP  RH WIND       PRES   REMARKS
DOTHAN         CLOUDY    62  55  77 NE7       30.09R
6HR MIN TEMP:  61; 6HR MAX TEMP:  64;

OZARK          CLOUDY    64  56  75 N8        30.06R
6HR MIN TEMP:  63; 6HR MAX TEMP:  67;

TROY           CLOUDY    64  57  78 N8        30.08R
6HR MIN TEMP:  64; 6HR MAX TEMP:  66; 6HR PCP: TRACE;

EUFAULA        CLOUDY    62  55  77 NE8G20    30.07R
6HR MIN TEMP:  61; 6HR MAX TEMP:  65;

$$



USA.gov is the U.S. government's official web portal to all federal, state and local government web resources and services.